| time (UTC) | temp C | wind direction | speed KPH | gust KPH | rain 1hr cm | rain 24hr cm | rain mn cm | humidity % | barometer mb |
| 20260505194532 | 14 | 270 | 1.6 | 6.4 | 0.00 | 0.03 | 0.03 | 85 | 1017.9 |
| 20260505193035 | 14 | 256 | 1.6 | 8.0 | 0.00 | 0.03 | 0.03 | 85 | 1017.9 |
| 20260505191522 | 13 | 288 | 3.2 | 8.0 | 0.00 | 0.03 | 0.03 | 86 | 1017.9 |
| 20260505190020 | 13 | 292 | 1.6 | 6.4 | 0.00 | 0.03 | 0.03 | 88 | 1017.8 |
| 20260505184515 | 13 | 289 | 3.2 | 6.4 | 0.00 | 0.03 | 0.03 | 89 | 1017.7 |
| 20260505183015 | 13 | 289 | 1.6 | 8.0 | 0.00 | 0.03 | 0.03 | 91 | 1017.7 |
| 20260505181513 | 13 | 290 | 3.2 | 8.0 | 0.00 | 0.03 | 0.03 | 91 | 1017.6 |
| 20260505180011 | 12 | 281 | 3.2 | 6.4 | 0.00 | 0.03 | 0.03 | 91 | 1017.6 |
| 20260505174522 | 12 | 295 | 1.6 | 6.4 | 0.00 | 0.03 | 0.03 | 91 | 1017.6 |
| 20260505173008 | 12 | 299 | 1.6 | 6.4 | 0.00 | 0.03 | 0.03 | 91 | 1017.5 |
| 20260505171508 | 12 | 301 | 1.6 | 6.4 | 0.00 | 0.03 | 0.03 | 91 | 1017.3 |
| 20260505170009 | 12 | 217 | 1.6 | 6.4 | 0.00 | 0.03 | 0.03 | 92 | 1017.2 |
| 20260505164504 | 12 | 230 | 4.8 | 9.7 | 0.00 | 0.03 | 0.03 | 91 | 1017.3 |
| 20260505163003 | 12 | 206 | 0.0 | 8.0 | 0.00 | 0.03 | 0.03 | 92 | 1017.2 |
| 20260505161503 | 12 | 217 | 1.6 | 9.7 | 0.00 | 0.03 | 0.03 | 92 | 1017.2 |
| 20260505153100 | 12 | 147 | 0.0 | 0.0 | 0.00 | 0.05 | 0.03 | 95 | 1017.2 |
| 20260505151557 | 12 | 147 | 0.0 | 0.0 | 0.00 | 0.05 | 0.03 | 96 | 1017.0 |
| 20260505124545 | 11 | 163 | 1.6 | 8.0 | 0.00 | 0.13 | 0.03 | 96 | 1016.3 |
| 20260505123102 | 11 | 146 | 1.6 | 6.4 | 0.03 | 0.13 | 0.03 | 96 | 1016.3 |
| 20260505121542 | 11 | 138 | 0.0 | 0.0 | 0.03 | 0.13 | 0.03 | 96 | 1016.2 |
| 20260505120045 | 11 | 137 | 0.0 | 0.0 | 0.03 | 0.13 | 0.03 | 96 | 1016.1 |
| 20260505114558 | 11 | 138 | 0.0 | 0.0 | 0.03 | 0.13 | 0.03 | 95 | 1016.1 |
| 20260505113041 | 11 | 153 | 0.0 | 0.0 | 0.00 | 0.10 | 0.00 | 95 | 1016.1 |
| 20260505111554 | 11 | 161 | 0.0 | 0.0 | 0.00 | 0.10 | 0.00 | 95 | 1016.1 |
| 20260505101535 | 11 | 136 | 0.0 | 4.8 | 0.00 | 0.13 | 0.00 | 93 | 1015.8 |
| 20260505100036 | 12 | 153 | 0.0 | 6.4 | 0.00 | 0.13 | 0.00 | 93 | 1015.8 |
| 20260505094536 | 12 | 157 | 0.0 | 1.6 | 0.00 | 0.15 | 0.00 | 93 | 1015.8 |
| 20260505093034 | 12 | 140 | 0.0 | 1.6 | 0.00 | 0.15 | 0.00 | 93 | 1015.7 |
| 20260505091535 | 12 | 173 | 0.0 | 8.0 | 0.00 | 0.15 | 0.00 | 93 | 1015.7 |
| 20260505090036 | 12 | 137 | 0.0 | 4.8 | 0.00 | 0.15 | 0.00 | 93 | 1015.6 |
| 20260505084530 | 12 | 152 | 1.6 | 6.4 | 0.00 | 0.18 | 0.00 | 93 | 1015.7 |
| 20260505083040 | 11 | 133 | 1.6 | 8.0 | 0.00 | 0.18 | 0.00 | 93 | 1015.7 |
| 20260505081533 | 12 | 133 | 1.6 | 8.0 | 0.00 | 0.18 | 0.00 | 93 | 1015.8 |
| 20260505080036 | 12 | 192 | 1.6 | 6.4 | 0.00 | 0.18 | 0.00 | 93 | 1016.0 |
| 20260505074526 | 11 | 185 | 0.0 | 8.0 | 0.00 | 0.18 | 0.00 | 93 | 1016.1 |
| 20260505073025 | 11 | 168 | 1.6 | 6.4 | 0.00 | 0.18 | 0.00 | 93 | 1016.0 |
| 20260505071523 | 11 | 153 | 0.0 | 8.0 | 0.00 | 0.18 | 0.00 | 93 | 1016.1 |
| 20260505070022 | 11 | 168 | 0.0 | 8.0 | 0.00 | 0.18 | 0.00 | 94 | 1016.1 |
| 20260505064520 | 11 | 153 | 1.6 | 6.4 | 0.00 | 0.18 | 0.18 | 94 | 1016.0 |
| 20260505063020 | 12 | 158 | 0.0 | 4.8 | 0.00 | 0.18 | 0.18 | 94 | 1016.0 |
| 20260505061623 | 12 | 163 | 0.0 | 4.8 | 0.00 | 0.18 | 0.18 | 94 | 1016.0 |
| 20260505060025 | 12 | 128 | 1.6 | 8.0 | 0.00 | 0.18 | 0.18 | 94 | 1016.1 |
| 20260505054518 | 12 | 213 | 1.6 | 4.8 | 0.00 | 0.20 | 0.18 | 93 | 1016.1 |
| 20260505053018 | 12 | 159 | 3.2 | 12.9 | 0.00 | 0.20 | 0.18 | 93 | 1016.1 |
| 20260505051518 | 12 | 214 | 0.0 | 8.0 | 0.00 | 0.20 | 0.18 | 93 | 1016.0 |
| 20260505041525 | 12 | 169 | 0.0 | 6.4 | 0.00 | 0.20 | 0.18 | 93 | 1015.6 |
| 20260505040015 | 12 | 180 | 1.6 | 8.0 | 0.00 | 0.20 | 0.18 | 92 | 1015.5 |
| 20260505034514 | 12 | 210 | 0.0 | 8.0 | 0.00 | 0.20 | 0.18 | 92 | 1015.4 |
| 20260505033017 | 12 | 192 | 1.6 | 9.7 | 0.00 | 0.20 | 0.18 | 92 | 1015.3 |
| 20260505031513 | 12 | 289 | 3.2 | 8.0 | 0.00 | 0.20 | 0.18 | 92 | 1015.2 |
| 20260505030013 | 12 | 214 | 1.6 | 6.4 | 0.00 | 0.20 | 0.18 | 92 | 1015.0 |
| 20260505024532 | 12 | 230 | 3.2 | 11.3 | 0.00 | 0.20 | 0.18 | 92 | 1015.0 |
| 20260505023011 | 12 | 244 | 1.6 | 9.7 | 0.00 | 0.20 | 0.18 | 91 | 1014.9 |
| 20260505021510 | 12 | 145 | 1.6 | 9.7 | 0.00 | 0.20 | 0.18 | 90 | 1014.8 |
| 20260505020011 | 12 | 202 | 1.6 | 9.7 | 0.00 | 0.20 | 0.18 | 90 | 1014.9 |
| 20260505014510 | 13 | 200 | 1.6 | 6.4 | 0.00 | 0.20 | 0.18 | 90 | 1014.9 |
| 20260505013018 | 13 | 207 | 1.6 | 6.4 | 0.00 | 0.20 | 0.18 | 90 | 1015.2 |
| 20260505011508 | 13 | 212 | 1.6 | 11.3 | 0.00 | 0.20 | 0.18 | 89 | 1015.3 |
| 20260505010009 | 13 | 292 | 4.8 | 9.7 | 0.00 | 0.20 | 0.18 | 88 | 1015.5 |
| 20260505004505 | 13 | 237 | 4.8 | 14.5 | 0.00 | 0.20 | 0.18 | 87 | 1015.5 |
| 20260505003005 | 14 | 222 | 3.2 | 16.1 | 0.00 | 0.20 | 0.18 | 86 | 1015.4 |
| 20260505001505 | 15 | 164 | 3.2 | 12.9 | 0.00 | 0.20 | 0.18 | 84 | 1015.5 |
| 20260505000004 | 15 | 115 | 6.4 | 16.1 | 0.00 | 0.20 | 0.18 | 86 | 1015.5 |
| 20260504234503 | 14 | 188 | 6.4 | 19.3 | 0.00 | 0.20 | 0.18 | 86 | 1015.6 |
| 20260504233104 | 14 | 243 | 4.8 | 16.1 | 0.00 | 0.20 | 0.18 | 87 | 1015.7 |
| 20260504231606 | 14 | 143 | 9.7 | 17.7 | 0.00 | 0.20 | 0.18 | 86 | 1015.7 |
| 20260504230100 | 15 | 200 | 4.8 | 14.5 | 0.00 | 0.20 | 0.18 | 86 | 1015.8 |
| 20260504224557 | 15 | 228 | 4.8 | 14.5 | 0.00 | 0.20 | 0.18 | 85 | 1016.1 |
| 20260504223057 | 14 | 215 | 6.4 | 14.5 | 0.00 | 0.20 | 0.18 | 85 | 1016.2 |
| 20260504221602 | 15 | 145 | 6.4 | 14.5 | 0.00 | 0.20 | 0.18 | 85 | 1016.3 |
| 20260504220054 | 15 | 321 | 3.2 | 11.3 | 0.00 | 0.20 | 0.18 | 86 | 1016.4 |
| 20260504214551 | 14 | 268 | 6.4 | 12.9 | 0.00 | 0.20 | 0.18 | 87 | 1016.6 |
| 20260504213151 | 13 | 264 | 6.4 | 17.7 | 0.00 | 0.20 | 0.18 | 89 | 1016.4 |
| 20260504211552 | 13 | 226 | 6.4 | 14.5 | 0.00 | 0.20 | 0.18 | 89 | 1016.3 |
| 20260504210105 | 13 | 242 | 4.8 | 17.7 | 0.00 | 0.20 | 0.18 | 89 | 1016.4 |
| 20260504204558 | 13 | 213 | 8.0 | 20.9 | 0.00 | 0.20 | 0.18 | 88 | 1016.4 |
| 20260504203048 | 13 | 286 | 4.8 | 16.1 | 0.00 | 0.20 | 0.18 | 90 | 1016.4 |
| 20260504201549 | 13 | 287 | 6.4 | 16.1 | 0.00 | 0.20 | 0.18 | 90 | 1016.4 |
| 20260504200043 | 13 | 228 | 4.8 | 17.7 | 0.00 | 0.20 | 0.18 | 90 | 1016.3 |